�N����,����,�g�[���i�䏊�j���x,�g�[�����x,��g�[���i��Q���j���x,����
 2003/06/01, 0:00,26.2,67,25.1,20.4
 2003/06/01, 0:15,26.2,67,25.1,20.4
 2003/06/01, 0:30,26.1,67,25,20.5
 2003/06/01, 0:45,26,67,24.9,21.1
 2003/06/01, 1:00,26,67,24.9,21
 2003/06/01, 1:15,25.8,68,24.8,21
 2003/06/01, 1:30,25.5,69,24.9,21
 2003/06/01, 1:45,25.4,69,24.8,21.1
 2003/06/01, 2:00,25.5,69,24.8,21.2
 2003/06/01, 2:15,25.8,67,24.8,21.2
 2003/06/01, 2:30,25.8,66,24.8,21.3
 2003/06/01, 2:45,25.8,66,24.7,21.5
 2003/06/01, 3:00,25.7,66,24.6,21.6
 2003/06/01, 3:15,25.7,65,24.5,21.6
 2003/06/01, 3:30,25.5,66,24.5,21.7
 2003/06/01, 3:45,25.2,67,24.4,21.7
 2003/06/01, 4:00,25.2,66,24.4,21.8
 2003/06/01, 4:15,26.1,67,24.4,21.8
 2003/06/01, 4:30,25.7,64,24.3,21.9
 2003/06/01, 4:45,25.5,64,24.3,21.9
 2003/06/01, 5:00,25.3,63,24.3,22
 2003/06/01, 5:15,25.1,63,24.2,22
 2003/06/01, 5:30,25.1,63,24,22.1
 2003/06/01, 5:45,25.8,63,23.9,21
 2003/06/01, 6:00,26.3,62,23.9,21
 2003/06/01, 6:15,26.1,61,23.8,21
 2003/06/01, 6:30,25.9,59,23.8,21.1
 2003/06/01, 6:45,25.6,59,23.7,21.1
 2003/06/01, 7:00,26.1,58,23.7,20.7
 2003/06/01, 7:15,25.7,58,23.6,20.8
 2003/06/01, 7:30,25.6,58,23.6,21.1
 2003/06/01, 7:45,25.5,58,23.5,20.6
 2003/06/01, 8:00,24.9,58,23.5,20.6
 2003/06/01, 8:15,25.5,57,23.4,20.5
 2003/06/01, 8:30,25.5,57,23.3,20.5
 2003/06/01, 8:45,25.5,58,23.3,20.3
 2003/06/01, 9:00,25.2,59,23.3,20.4
 2003/06/01, 9:15,25.1,59,23.3,20.3
 2003/06/01, 9:30,25.2,58,23.2,20.3
 2003/06/01, 9:45,24.9,59,23.2,20.4
 2003/06/01,10:00,24.4,61,23.1,20.4
 2003/06/01,10:15,24.4,60,23.1,20.4
 2003/06/01,10:30,24.4,60,23,20.4
 2003/06/01,10:45,24.5,60,23,19.7
 2003/06/01,11:00,24.3,60,23,19.8
 2003/06/01,11:15,24.3,60,23,19.8
 2003/06/01,11:30,24.4,59,23,19.7
 2003/06/01,11:45,24.3,59,23,19.7
 2003/06/01,12:00,24.1,59,23,19.7
 2003/06/01,12:15,24.1,59,23.1,19.7
 2003/06/01,12:30,24.2,60,23.1,19.7
 2003/06/01,12:45,24.6,59,23.2,19.4
 2003/06/01,13:00,24.7,58,23.3,19.5
 2003/06/01,13:15,24.7,58,23.4,19.5
 2003/06/01,13:30,24.8,57,23.4,19.6
 2003/06/01,13:45,24.6,58,23.4,19.7
 2003/06/01,14:00,24.4,58,23.5,19.7
 2003/06/01,14:15,24.4,58,23.5,19.7
 2003/06/01,14:30,24.3,58,23.5,19.8
 2003/06/01,14:45,24.4,58,23.5,19.8
 2003/06/01,15:00,24.5,58,23.5,19.9
 2003/06/01,15:15,24.5,58,23.5,19.9
 2003/06/01,15:30,24.7,58,23.5,19.5
 2003/06/01,15:45,24.7,58,23.5,19.6
 2003/06/01,16:00,24.4,59,23.5,19.6
 2003/06/01,16:15,24.6,60,23.5,20
 2003/06/01,16:30,24.4,61,23.5,20.3
 2003/06/01,16:45,24.5,60,23.5,20.4
 2003/06/01,17:00,24.4,60,23.5,20.6
 2003/06/01,17:15,24.8,57,23.5,20.2
 2003/06/01,17:30,24.8,58,23.5,20.2
 2003/06/01,17:45,24.5,61,23.5,20.2
 2003/06/01,18:00,24.8,60,23.5,20.1
 2003/06/01,18:15,25.8,54,23.5,20.8
 2003/06/01,18:30,25.8,52,23.4,20.4
 2003/06/01,18:45,25.8,54,23.3,20.7
 2003/06/01,19:00,25.9,54,23.3,20.4
 2003/06/01,19:15,25.3,54,23.3,20.5
 2003/06/01,19:30,25.1,54,23.2,20.6
 2003/06/01,19:45,25.1,53,23.1,20.6
 2003/06/01,20:00,25,52,23,20.5
 2003/06/01,20:15,24.8,53,22.9,20.6
 2003/06/01,20:30,24.6,55,22.9,20.4
 2003/06/01,20:45,24.5,55,22.8,19.7
 2003/06/01,21:00,24.6,54,22.7,19.7
 2003/06/01,21:15,24.5,54,22.6,19.7
 2003/06/01,21:30,24.4,54,22.5,19.7
 2003/06/01,21:45,24.5,54,22.6,20
 2003/06/01,22:00,24,54,22.4,20
 2003/06/01,22:15,24.2,54,22.4,19.7
 2003/06/01,22:30,24.2,55,22.3,19.8
 2003/06/01,22:45,24.1,56,22.3,20.4
 2003/06/01,23:00,24,56,22.3,20.5
 2003/06/01,23:15,24,56,22.2,20.6
 2003/06/01,23:30,23.8,56,22.2,20.6
 2003/06/01,23:45,23.4,58,22.2,19.9
 2003/06/02, 0:00,23.5,57,22.2,20.1
 2003/06/02, 0:15,23.5,57,22.1,20.1
 2003/06/02, 0:30,23.4,57,22,20.1
 2003/06/02, 0:45,23.2,58,22,19.9
 2003/06/02, 1:00,23.1,58,21.9,19.9
 2003/06/02, 1:15,23.1,58,21.9,19.8
 2003/06/02, 1:30,23.1,58,21.9,19.8
 2003/06/02, 1:45,23,58,21.8,19.8
 2003/06/02, 2:00,22.9,58,21.8,20.4
 2003/06/02, 2:15,22.9,58,21.7,20.2
 2003/06/02, 2:30,22.8,58,21.6,20.1
 2003/06/02, 2:45,22.7,58,21.6,20
 2003/06/02, 3:00,22.5,59,21.6,20.5
 2003/06/02, 3:15,22.2,59,21.4,20.5
 2003/06/02, 3:30,22.2,59,21.3,20.4
 2003/06/02, 3:45,22.6,57,21.2,20.4
 2003/06/02, 4:00,22.6,57,21.1,20.5
 2003/06/02, 4:15,22.5,57,21,20.5
 2003/06/02, 4:30,22.3,57,20.9,20.3
 2003/06/02, 4:45,22.3,57,20.8,20.6
 2003/06/02, 5:00,22.2,57,20.7,20.5
 2003/06/02, 5:15,21.9,58,20.7,20.6
 2003/06/02, 5:30,22,58,20.6,20.6
 2003/06/02, 5:45,21.9,58,20.6,20.7
 2003/06/02, 6:00,22,58,20.6,19.5
 2003/06/02, 6:15,22,60,20.6,19.4
 2003/06/02, 6:30,21.9,61,20.6,19.4
 2003/06/02, 6:45,21.9,61,20.6,19.2
 2003/06/02, 7:00,23,58,20.6,19.2
 2003/06/02, 7:15,23.2,57,20.6,19.3
 2003/06/02, 7:30,23.1,57,20.6,19.4
 2003/06/02, 7:45,23.5,56,20.6,19.9
 2003/06/02, 8:00,23.4,59,20.7,20.1
 2003/06/02, 8:15,23,59,20.7,20
 2003/06/02, 8:30,22.9,59,20.8,20
 2003/06/02, 8:45,22.8,59,21,19.9
 2003/06/02, 9:00,22.9,58,21,19.9
 2003/06/02, 9:15,23,57,21.1,19.9
 2003/06/02, 9:30,23,57,21.2,19.9
 2003/06/02, 9:45,23,56,21.3,19.9
 2003/06/02,10:00,23.1,56,21.3,19.9
 2003/06/02,10:15,23.1,55,21.5,19.9
 2003/06/02,10:30,23.2,55,21.6,19.9
 2003/06/02,10:45,23.1,55,21.7,20
 2003/06/02,11:00,23.2,55,21.7,20
 2003/06/02,11:15,23.2,54,22,20
 2003/06/02,11:30,23.3,55,22.2,20
 2003/06/02,11:45,23.5,54,22.3,20.1
 2003/06/02,12:00,23.6,54,22.5,20.1
 2003/06/02,12:15,23.7,54,22.7,20.1
 2003/06/02,12:30,23.6,54,22.9,20.1
 2003/06/02,12:45,23.7,54,23.1,20.2
 2003/06/02,13:00,23.9,54,23.4,20.2
 2003/06/02,13:15,24,54,23.6,20.2
 2003/06/02,13:30,24.1,54,23.8,20.3
 2003/06/02,13:45,24.2,54,24.1,20.3
 2003/06/02,14:00,24.3,54,24.4,20.3
 2003/06/02,14:15,24.6,53,24.7,20.4
 2003/06/02,14:30,24.7,52,25,20.4
 2003/06/02,14:45,25.1,51,25.3,20.4
 2003/06/02,15:00,25.3,51,25.5,20.5
 2003/06/02,15:15,25.5,51,25.8,20.5
 2003/06/02,15:30,25.7,50,26.1,20.6
 2003/06/02,15:45,26,50,26.3,20.6
 2003/06/02,16:00,26.2,50,26.6,20.7
 2003/06/02,16:15,26.4,50,26.8,20.7
 2003/06/02,16:30,26.4,50,27.1,20.8
 2003/06/02,16:45,26.5,50,27.4,20.8
 2003/06/02,17:00,26.6,50,27.5,21
 2003/06/02,17:15,26.8,50,27.6,21.1
 2003/06/02,17:30,26.8,45,27,19.3
 2003/06/02,17:45,26.7,41,26.8,19.2
 2003/06/02,18:00,27,41,26.8,19.2
 2003/06/02,18:15,26.9,40,26.4,19.3
 2003/06/02,18:30,26.6,41,26.3,19.3
 2003/06/02,18:45,26.4,42,26.1,19.4
 2003/06/02,19:00,26.6,44,25.9,19.3
 2003/06/02,19:15,26.4,44,25.8,19.8
 2003/06/02,19:30,25.8,44,25.6,19.6
 2003/06/02,19:45,25.5,46,25.5,19.6
 2003/06/02,20:00,25.3,49,25.3,19.6
 2003/06/02,20:15,25.9,49,25.1,19.2
 2003/06/02,20:30,26.2,48,24.8,19.6
 2003/06/02,20:45,26.3,48,24.5,19.8
 2003/06/02,21:00,26.1,49,24.4,19.8
 2003/06/02,21:15,26.3,50,24.4,19.7
 2003/06/02,21:30,26.6,50,24.3,19.7
 2003/06/02,21:45,26.4,49,24.2,19.8
 2003/06/02,22:00,26.2,48,24,19.8
 2003/06/02,22:15,26,48,24,19.8
 2003/06/02,22:30,25.5,50,23.9,19.9
 2003/06/02,22:45,25.3,51,23.9,19.9
 2003/06/02,23:00,25.3,52,23.8,20
 2003/06/02,23:15,25.3,52,23.8,20
 2003/06/02,23:30,25.2,53,23.7,20.1
 2003/06/02,23:45,25.1,53,23.7,20.1
 2003/06/03, 0:00,25.1,53,23.6,19.7
 2003/06/03, 0:15,25,53,23.5,19.7
 2003/06/03, 0:30,24.7,54,23.4,19.8
 2003/06/03, 0:45,24.6,54,23.3,19.8
 2003/06/03, 1:00,24.5,54,23.2,19.8
 2003/06/03, 1:15,24.4,54,23.2,19.9
 2003/06/03, 1:30,24.3,54,23.1,19.9
 2003/06/03, 1:45,24.4,54,23,19.9
 2003/06/03, 2:00,24.2,54,23,19.9
 2003/06/03, 2:15,24.1,55,23,20
 2003/06/03, 2:30,24.1,54,22.9,20
 2003/06/03, 2:45,23.8,55,22.8,20
 2003/06/03, 3:00,23.8,55,22.7,20.1
 2003/06/03, 3:15,23.6,55,22.6,20.1
 2003/06/03, 3:30,23.5,56,22.5,20.1
 2003/06/03, 3:45,23.5,55,22.5,20.1
 2003/06/03, 4:00,23.6,55,22.4,20.2
 2003/06/03, 4:15,23.5,55,22.2,20.2
 2003/06/03, 4:30,23.2,56,22.2,20.2
 2003/06/03, 4:45,23.2,56,22,20.2
 2003/06/03, 5:00,23.1,56,22,20.3
 2003/06/03, 5:15,23.1,56,21.8,20.3
 2003/06/03, 5:30,23.1,55,21.8,20.3
 2003/06/03, 5:45,23.1,55,21.9,20.3
 2003/06/03, 6:00,23,56,21.9,20.3
 2003/06/03, 6:15,23.4,61,21.8,19.1
 2003/06/03, 6:30,24.3,53,21.8,19.1
 2003/06/03, 6:45,23.8,54,21.8,19.2
 2003/06/03, 7:00,23.5,54,21.8,19.5
 2003/06/03, 7:15,23.4,54,21.8,19.7
 2003/06/03, 7:30,23.5,52,21.8,19.7
 2003/06/03, 7:45,24,50,21.9,19.4
 2003/06/03, 8:00,23.7,52,22,19.4
 2003/06/03, 8:15,23.6,49,22,19.4
 2003/06/03, 8:30,23.4,50,22,19.4
 2003/06/03, 8:45,23.5,49,22.1,19.5
 2003/06/03, 9:00,23.5,46,22.2,19.5
 2003/06/03, 9:15,23.7,42,22.3,19.2
 2003/06/03, 9:30,23.9,41,22.3,19.3
 2003/06/03, 9:45,23.8,43,22.3,19.3
 2003/06/03,10:00,24,45,22.5,19.1
 2003/06/03,10:15,24,45,22.5,19.1
 2003/06/03,10:30,24.2,46,22.6,19.1
 2003/06/03,10:45,24.4,46,22.8,19.2
 2003/06/03,11:00,24.5,46,22.9,19.2
 2003/06/03,11:15,24.6,45,23.1,19.3
 2003/06/03,11:30,24.5,45,23.4,19.3
 2003/06/03,11:45,24.6,46,23.5,19.3
 2003/06/03,12:00,24.5,46,23.6,19.4
 2003/06/03,12:15,24.7,47,23.8,19.4
 2003/06/03,12:30,25,55,24.1,18.8
 2003/06/03,12:45,25.2,51,24.3,18.8
 2003/06/03,13:00,25.2,50,24.5,18.9
 2003/06/03,13:15,25,50,24.8,18.9
 2003/06/03,13:30,25,51,25,19
 2003/06/03,13:45,25.6,48,25.3,19
 2003/06/03,14:00,26.1,47,25.5,19.1
 2003/06/03,14:15,26.2,47,25.8,19.2
 2003/06/03,14:30,26.3,47,26.1,19.2
 2003/06/03,14:45,26.5,47,26.2,19.3
 2003/06/03,15:00,26.7,47,26.5,19.3
 2003/06/03,15:15,26.5,46,26.7,19.4
 2003/06/03,15:30,26.7,47,26.9,19.5
 2003/06/03,15:45,26.7,47,26.9,19.5
 2003/06/03,16:00,26.7,37,26.9,18.9
 2003/06/03,16:15,26.8,32,26.7,19
 2003/06/03,16:30,26.8,33,26.6,19
 2003/06/03,16:45,27.6,36,27,19.1
 2003/06/03,17:00,27.6,41,26.8,19.1
 2003/06/03,17:15,27.5,41,26.7,19.4
 2003/06/03,17:30,27.2,41,26.5,19.4
 2003/06/03,17:45,27.2,40,26,19.4
 2003/06/03,18:00,27.2,37,26.3,19.5
 2003/06/03,18:15,27.8,35,26.3,19.2
 2003/06/03,18:30,26.2,36,26.1,19.2
 2003/06/03,18:45,26.4,38,26,19.3
 2003/06/03,19:00,26.5,38,25.9,19.3
 2003/06/03,19:15,26.7,39,25.8,19.4
 2003/06/03,19:30,26.7,40,25.6,19.4
 2003/06/03,19:45,26.7,43,25.5,19.6
 2003/06/03,20:00,26.2,43,25.5,19.7
 2003/06/03,20:15,25.7,42,25.3,19.7
 2003/06/03,20:30,25.9,42,25.2,19.7
 2003/06/03,20:45,26.2,41,25.1,19.7
 2003/06/03,21:00,26.2,41,25,19.8
 2003/06/03,21:15,25.6,42,24.9,19.8
 2003/06/03,21:30,25.5,43,24.8,19.8
 2003/06/03,21:45,25.2,44,24.7,19.9
 2003/06/03,22:00,25.5,44,24.6,19.9
 2003/06/03,22:15,25.6,44,24.5,20
 2003/06/03,22:30,25.2,45,24.5,20
 2003/06/03,22:45,25.1,46,24.5,19.6
 2003/06/03,23:00,25.4,45,24.4,19.6
 2003/06/03,23:15,25.5,45,24.3,19.7
 2003/06/03,23:30,25.4,46,24.3,20.3
 2003/06/03,23:45,25.3,48,24.2,20.7
 2003/06/04, 0:00,25,52,24,20.6
 2003/06/04, 0:15,24.9,53,24,20.5
 2003/06/04, 0:30,24.8,54,23.9,20.5
 2003/06/04, 0:45,24.9,53,23.8,20.5
 2003/06/04, 1:00,24.9,54,23.8,20.4
 2003/06/04, 1:15,24.8,54,23.7,20.3
 2003/06/04, 1:30,24.4,55,23.6,20.4
 2003/06/04, 1:45,24.3,55,23.5,20.4
 2003/06/04, 2:00,24.1,55,23.4,20.5
 2003/06/04, 2:15,24.1,55,23.4,20.7
 2003/06/04, 2:30,24.2,55,23.3,20.7
 2003/06/04, 2:45,24.2,54,23.2,20.7
 2003/06/04, 3:00,24.1,54,23.1,20.6
 2003/06/04, 3:15,24,54,23.1,20.5
 2003/06/04, 3:30,23.7,55,23,20.5
 2003/06/04, 3:45,23.6,55,23,20.4
 2003/06/04, 4:00,23.8,54,23,20.4
 2003/06/04, 4:15,24.1,53,22.9,20.7
 2003/06/04, 4:30,24.1,52,22.8,20.6
 2003/06/04, 4:45,24,53,22.7,20.5
 2003/06/04, 5:00,24,52,22.6,20.5
 2003/06/04, 5:15,23.6,53,22.6,20.5
 2003/06/04, 5:30,23.5,53,22.5,20.5
 2003/06/04, 5:45,23.4,53,22.5,20.5
 2003/06/04, 6:00,23.2,54,22.5,20.5
 2003/06/04, 6:15,23.4,53,22.4,20.5
 2003/06/04, 6:30,23.6,52,22.3,20.5
 2003/06/04, 6:45,23.4,53,22.3,20.5
 2003/06/04, 7:00,23.9,53,22.3,19.8
 2003/06/04, 7:15,23.8,53,22.2,20.1
 2003/06/04, 7:30,23.9,53,22.2,19.8
 2003/06/04, 7:45,24,53,22.2,19.8
 2003/06/04, 8:00,23.8,53,22.1,19.9
 2003/06/04, 8:15,23.7,53,22.1,19.9
 2003/06/04, 8:30,23.7,53,22.1,20.1
 2003/06/04, 8:45,23.8,53,22.2,20.2
 2003/06/04, 9:00,24.1,52,22.3,20.2
 2003/06/04, 9:15,24.2,52,22.4,20.2
 2003/06/04, 9:30,24.2,52,22.5,20.1
 2003/06/04, 9:45,24.4,52,22.5,20.1
 2003/06/04,10:00,24.4,53,22.7,20.1
 2003/06/04,10:15,24.5,52,22.8,20.2
 2003/06/04,10:30,24.4,52,23,20.2
 2003/06/04,10:45,24.6,51,23.1,20.5
 2003/06/04,11:00,24.8,50,23.2,20.7
 2003/06/04,11:15,24.6,52,23.5,20
 2003/06/04,11:30,24.8,49,23.6,19.9
 2003/06/04,11:45,25.3,49,23.6,19.8
 2003/06/04,12:00,25.3,49,23.8,19.7
 2003/06/04,12:15,25.3,49,23.9,19.7
 2003/06/04,12:30,25.3,49,24,19.7
 2003/06/04,12:45,25.4,50,24.1,19.7
 2003/06/04,13:00,25.1,51,24.1,19.7
 2003/06/04,13:15,25,52,24.1,19.7
 2003/06/04,13:30,25,53,24.1,19.5
 2003/06/04,13:45,25.1,53,24.1,19.5
 2003/06/04,14:00,25.2,53,24.2,19.5
 2003/06/04,14:15,25.3,53,24.3,19.5
 2003/06/04,14:30,25.1,55,24.4,19.5
 2003/06/04,14:45,25.2,55,24.4,19.6
 2003/06/04,15:00,25.1,55,24.5,19.6
 2003/06/04,15:15,25.5,53,24.6,19.6
 2003/06/04,15:30,25.6,52,24.7,19.7
 2003/06/04,15:45,25.8,50,25,19.7
 2003/06/04,16:00,25.8,51,25.1,19.7
 2003/06/04,16:15,25.8,51,25.2,19.2
 2003/06/04,16:30,25.9,49,25.5,19.2
 2003/06/04,16:45,26.1,47,25.6,19.2
 2003/06/04,17:00,26.2,44,25.6,19.2
 2003/06/04,17:15,26.2,44,25.9,19.3
 2003/06/04,17:30,26.2,44,25.8,19.3
 2003/06/04,17:45,26,44,25.9,19.4
 2003/06/04,18:00,27.4,42,26,19.4
 2003/06/04,18:15,27.4,44,25.9,19.6
 2003/06/04,18:30,26.8,44,25.8,19.6
 2003/06/04,18:45,26.4,45,25.6,19.5
 2003/06/04,19:00,26.1,44,25.4,20.2
 2003/06/04,19:15,26,44,25.4,20.2
 2003/06/04,19:30,25.8,49,25.2,20.3
 2003/06/04,19:45,25.6,49,25,20.2
 2003/06/04,20:00,25.7,48,24.9,20.1
 2003/06/04,20:15,25.8,48,24.8,19.6
 2003/06/04,20:30,25.8,49,24.6,19.6
 2003/06/04,20:45,25.2,50,24.4,19.6
 2003/06/04,21:00,25.2,49,24.2,19.6
 2003/06/04,21:15,25.9,52,24.2,19.6
 2003/06/04,21:30,25.6,53,24,19.7
 2003/06/04,21:45,25.3,52,23.9,19.7
 2003/06/04,22:00,25.4,52,23.8,19.7
 2003/06/04,22:15,25.3,52,23.8,19.9
 2003/06/04,22:30,25.1,53,23.8,19.9
 2003/06/04,22:45,24.8,53,23.6,19.9
 2003/06/04,23:00,24.8,52,23.5,19.9
 2003/06/04,23:15,24.8,52,23.5,20
 2003/06/04,23:30,24.7,52,23.4,20
 2003/06/04,23:45,24.3,53,23.3,20.1
 2003/06/05, 0:00,24.3,53,23.1,20.1
 2003/06/05, 0:15,24.3,53,23,19.6
 2003/06/05, 0:30,24.2,56,23,19.6
 2003/06/05, 0:45,24.1,56,23,19.6
 2003/06/05, 1:00,23.8,57,22.9,19.7
 2003/06/05, 1:15,23.7,58,22.8,19.7
 2003/06/05, 1:30,23.6,58,22.7,19.7
 2003/06/05, 1:45,23.6,58,22.6,19.7
 2003/06/05, 2:00,23.7,57,22.5,19.8
 2003/06/05, 2:15,23.5,57,22.5,19.8
 2003/06/05, 2:30,23.2,58,22.4,19.8
 2003/06/05, 2:45,23.2,58,22.4,19.8
 2003/06/05, 3:00,22.9,59,22.3,19.9
 2003/06/05, 3:15,23.1,58,22.2,20
 2003/06/05, 3:30,23.2,57,22.2,20
 2003/06/05, 3:45,23,57,22.1,20
 2003/06/05, 4:00,22.7,58,22,20
 2003/06/05, 4:15,22.7,58,21.9,20
 2003/06/05, 4:30,22.6,58,21.8,20
 2003/06/05, 4:45,22.6,57,21.8,20
 2003/06/05, 5:00,22.7,56,21.7,20
 2003/06/05, 5:15,22.5,57,21.6,20.1
 2003/06/05, 5:30,22.3,57,21.6,20.1
 2003/06/05, 5:45,22.3,57,21.5,20.1
 2003/06/05, 6:00,22.2,57,21.5,20.1
 2003/06/05, 6:15,22.3,56,21.4,20.1
 2003/06/05, 6:30,22.4,55,21.4,20.1
 2003/06/05, 6:45,22.6,56,21.3,19.7
 2003/06/05, 7:00,22.9,55,21.3,19.5
 2003/06/05, 7:15,23,55,21.3,19.2
 2003/06/05, 7:30,23,55,21.3,19.2
 2003/06/05, 7:45,23,55,21.4,19.4
 2003/06/05, 8:00,23.2,56,21.4,19.5
 2003/06/05, 8:15,23.3,56,21.5,19.4
 2003/06/05, 8:30,23.5,55,21.5,19.5
 2003/06/05, 8:45,23.4,55,21.7,19.5
 2003/06/05, 9:00,23.2,57,21.8,19.5
 2003/06/05, 9:15,23,57,21.9,19.6
 2003/06/05, 9:30,23.6,54,22,19.6
 2003/06/05, 9:45,24.1,53,22.1,19.6
 2003/06/05,10:00,24.2,53,22.3,19.7
 2003/06/05,10:15,24.1,53,22.4,19.7
 2003/06/05,10:30,24.3,53,22.6,19.7
 2003/06/05,10:45,24.1,54,22.9,19.8
 2003/06/05,11:00,24,54,23.2,19.8
 2003/06/05,11:15,24.2,54,23.4,19.8
 2003/06/05,11:30,24.5,53,23.5,19.9
 2003/06/05,11:45,24.7,52,23.7,19.9
 2003/06/05,12:00,24.5,53,24,20
 2003/06/05,12:15,24.6,53,24.3,20
 2003/06/05,12:30,24.7,53,24.5,20.1
 2003/06/05,12:45,24.9,52,24.9,20.1
 2003/06/05,13:00,25.3,51,25.1,20.2
 2003/06/05,13:15,25.5,51,25.4,20.2
 2003/06/05,13:30,25.3,52,25.7,20.3
 2003/06/05,13:45,25.4,52,25.9,20.4
 2003/06/05,14:00,25.5,52,26.3,19.5
 2003/06/05,14:15,25.9,51,26.7,19.6
 2003/06/05,14:30,26.4,50,27.1,19.6
 2003/06/05,14:45,26.4,51,27.5,19.6
 2003/06/05,15:00,26.3,51,27.9,19.7
 2003/06/05,15:15,26.6,51,28.2,19.7
 2003/06/05,15:30,26.5,52,28.3,19.8
 2003/06/05,15:45,26.9,51,28.3,19.8
 2003/06/05,16:00,26.9,52,28.2,19.9
 2003/06/05,16:15,26.7,52,28.2,20
 2003/06/05,16:30,26.7,53,28.3,20
 2003/06/05,16:45,26.8,52,28.5,20.1
 2003/06/05,17:00,27.1,48,28.2,19.9
 2003/06/05,17:15,27.6,51,28.1,20
 2003/06/05,17:30,28.4,43,27.8,20
 2003/06/05,17:45,28.1,44,27.5,20.1
 2003/06/05,18:00,27.9,47,27.4,20.2
 2003/06/05,18:15,27.6,48,27.5,20.2
 2003/06/05,18:30,27.3,47,27.1,20.3
 2003/06/05,18:45,27.6,46,26.7,19.7
 2003/06/05,19:00,27.6,46,26.4,20.2
 2003/06/05,19:15,26.9,46,26.2,20.2
 2003/06/05,19:30,26.6,46,26.3,20.2
 2003/06/05,19:45,26.2,46,26,20.3
 2003/06/05,20:00,26.2,44,25.8,20.4
 2003/06/05,20:15,26.5,44,25.8,20
 2003/06/05,20:30,26.6,44,25.5,20.1
 2003/06/05,20:45,26.8,42,25.6,20.1
 2003/06/05,21:00,26.8,42,25.6,20.2
 2003/06/05,21:15,26.6,44,25.5,20.3
 2003/06/05,21:30,26.7,43,25.5,20.3
 2003/06/05,21:45,26.7,43,25.5,20.4
 2003/06/05,22:00,26.5,44,25.4,20.4
 2003/06/05,22:15,26.1,45,25.4,20.5
 2003/06/05,22:30,26.1,44,25.3,20.5
 2003/06/05,22:45,26.1,45,25.3,20.6
 2003/06/05,23:00,26.1,46,25.2,20.6
 2003/06/05,23:15,25.9,48,25.1,20.7
 2003/06/05,23:30,25.8,49,25,20.6
 2003/06/05,23:45,25.5,49,24.9,20.2
 2003/06/06, 0:00,25.3,47,24.8,20.1
 2003/06/06, 0:15,25,46,24.9,20.2
 2003/06/06, 0:30,25,46,25,20.3
 2003/06/06, 0:45,25,46,24.8,20.3
 2003/06/06, 1:00,24.8,46,24.7,20.3
 2003/06/06, 1:15,24.4,47,24.5,20.4
 2003/06/06, 1:30,24.1,47,24.4,20.4
 2003/06/06, 1:45,24.4,46,24.3,20.4
 2003/06/06, 2:00,24.5,45,24.2,20.4
 2003/06/06, 2:15,24.4,45,24,20.5
 2003/06/06, 2:30,24.2,46,23.9,20.5
 2003/06/06, 2:45,24.1,46,23.9,20.6
 2003/06/06, 3:00,23.8,46,23.8,20.6
 2003/06/06, 3:15,23.6,46,23.7,20.6
 2003/06/06, 3:30,23.5,46,23.7,20.6
 2003/06/06, 3:45,23.5,46,23.6,20.6
 2003/06/06, 4:00,23.5,45,23.5,20.7
 2003/06/06, 4:15,23.2,46,23.4,20.7
 2003/06/06, 4:30,23,47,23.3,20.7
 2003/06/06, 4:45,22.8,47,23.2,20.7
 2003/06/06, 5:00,22.7,47,23.1,20.7
 2003/06/06, 5:15,22.8,47,23,20.7
 2003/06/06, 5:30,22.8,48,22.9,20.8
 2003/06/06, 5:45,22.6,48,22.9,20.8
 2003/06/06, 6:00,22.4,49,22.9,20.8
 2003/06/06, 6:15,22.3,49,22.9,20.9
 2003/06/06, 6:30,22.4,49,22.7,19.8
 2003/06/06, 6:45,22.9,49,22.6,20.2
 2003/06/06, 7:00,22.9,49,22.5,20.2
 2003/06/06, 7:15,22.9,48,22.5,20.2
 2003/06/06, 7:30,22.9,48,22.5,19.7
 2003/06/06, 7:45,23.4,47,22.5,19.7
 2003/06/06, 8:00,23.3,47,22.4,19.7
 2003/06/06, 8:15,23.1,48,22.5,19.8
 2003/06/06, 8:30,23.2,47,22.4,19.7
 2003/06/06, 8:45,23.4,48,22.5,19.7
 2003/06/06, 9:00,23.6,47,22.5,19.8
 2003/06/06, 9:15,23.4,47,22.6,19.8
 2003/06/06, 9:30,23.6,47,22.7,19.8
 2003/06/06, 9:45,23.5,47,22.9,19.9
 2003/06/06,10:00,23.9,50,23.1,19.9
 2003/06/06,10:15,24.2,48,23.3,19.9
 2003/06/06,10:30,24.4,47,23.5,19.9
 2003/06/06,10:45,24.3,48,23.8,19.9
 2003/06/06,11:00,24.3,48,24,20
 2003/06/06,11:15,24.3,48,24.4,20
 2003/06/06,11:30,24.6,48,24.4,20.1
 2003/06/06,11:45,24.8,48,24.7,20.1
 2003/06/06,12:00,25,48,25,20.1
 2003/06/06,12:15,24.9,49,25.3,20.2
 2003/06/06,12:30,25.1,49,25.6,20.2
 2003/06/06,12:45,25.1,49,25.9,20.3
 2003/06/06,13:00,25.8,44,26.1,19.4
 2003/06/06,13:15,26.2,41,26.3,19.5
 2003/06/06,13:30,26.5,41,26.6,19.5
 2003/06/06,13:45,26.4,44,26.8,19.6
 2003/06/06,14:00,26.7,44,27,19.6
 2003/06/06,14:15,26.8,44,27.3,19.7
 2003/06/06,14:30,27.2,43,27.4,19.7
 2003/06/06,14:45,27.6,43,27.8,19.7
 2003/06/06,15:00,28,42,28,19.7
 2003/06/06,15:15,27.7,42,28.3,19.8
 2003/06/06,15:30,27.6,42,28.1,19.8
 2003/06/06,15:45,27.9,40,28.2,19.7
 2003/06/06,16:00,28.2,40,28.2,19.7
 2003/06/06,16:15,28,40,28,19.6
 2003/06/06,16:30,27.8,40,27.9,19.6
 2003/06/06,16:45,28.1,39,28,20.1
 2003/06/06,17:00,28,38,28,20.1
 2003/06/06,17:15,28.3,38,28,20.2
 2003/06/06,17:30,28.2,39,27.6,20.2
 2003/06/06,17:45,27.7,41,27.3,20.2
 2003/06/06,18:00,27.8,47,27.2,19.8
 2003/06/06,18:15,29.2,42,26.9,20
 2003/06/06,18:30,28.9,44,26.6,20
 2003/06/06,18:45,28.9,54,26.6,20.1
 2003/06/06,19:00,28.4,45,26.4,20.2
 2003/06/06,19:15,28.5,44,26.1,20.3
 2003/06/06,19:30,28.1,45,26.3,20.4
 2003/06/06,19:45,27.9,46,26.4,20.4
 2003/06/06,20:00,27.5,46,26.2,20.5
 2003/06/06,20:15,27.2,48,26.3,20.6
 2003/06/06,20:30,27.4,49,26.2,20.3
 2003/06/06,20:45,27.6,47,26.2,20.3
 2003/06/06,21:00,27.6,46,26.2,20.1
 2003/06/06,21:15,27.7,45,26.1,20.2
 2003/06/06,21:30,27.5,47,26.1,20.3
 2003/06/06,21:45,27.6,47,26,20.3
 2003/06/06,22:00,27.5,47,25.9,20.3
 2003/06/06,22:15,27.2,50,25.9,20.3
 2003/06/06,22:30,26.9,52,25.9,20.4
 2003/06/06,22:45,26.9,52,25.9,20.5
 2003/06/06,23:00,26.9,51,25.9,20.5
 2003/06/06,23:15,26.9,53,25.8,20.6
 2003/06/06,23:30,27,52,25.8,20.6
 2003/06/06,23:45,27,53,25.8,20.7
 2003/06/07, 0:00,26.9,53,25.7,20.8
 2003/06/07, 0:15,26.5,53,25.6,20.3
 2003/06/07, 0:30,26.4,54,25.6,20.4
 2003/06/07, 0:45,26.4,53,25.6,20.4
 2003/06/07, 1:00,26.4,53,25.5,20.5
 2003/06/07, 1:15,26.3,53,25.4,20.5
 2003/06/07, 1:30,26.3,53,25.4,20.6
 2003/06/07, 1:45,26,54,25.4,20.6
 2003/06/07, 2:00,25.9,53,25.3,20.7
 2003/06/07, 2:15,25.9,54,25.3,20.7
 2003/06/07, 2:30,26,53,25.3,20.8
 2003/06/07, 2:45,25.8,54,25.2,20.8
 2003/06/07, 3:00,25.5,54,25.2,20.9
 2003/06/07, 3:15,25.5,54,25.1,20.9
 2003/06/07, 3:30,25.6,54,25.1,21
 2003/06/07, 3:45,25.5,54,25.1,21
 2003/06/07, 4:00,25.4,55,25,21.1
 2003/06/07, 4:15,25.4,55,24.8,21.1
 2003/06/07, 4:30,25.4,55,24.7,21.1
 2003/06/07, 4:45,25.1,56,24.7,21.2
 2003/06/07, 5:00,25.1,56,24.7,21.2
 2003/06/07, 5:15,25.2,56,24.6,21.3
 2003/06/07, 5:30,25.2,56,24.5,21.3
 2003/06/07, 5:45,25.1,56,24.4,21.3
 2003/06/07, 6:00,24.9,57,24.5,21.4
 2003/06/07, 6:15,25,57,24.4,21
 2003/06/07, 6:30,25.2,56,24.4,21
 2003/06/07, 6:45,25.4,56,24.3,21.1
 2003/06/07, 7:00,25.2,57,24.3,21.1
 2003/06/07, 7:15,25.2,59,24.2,21.1
 2003/06/07, 7:30,25.2,61,24.2,20.3
 2003/06/07, 7:45,25.6,59,24.2,20.4
 2003/06/07, 8:00,25.7,59,24.3,20.2
 2003/06/07, 8:15,25.6,60,24.3,20.1
 2003/06/07, 8:30,25.8,60,24.3,20.2
 2003/06/07, 8:45,25.6,61,24.4,20.2
 2003/06/07, 9:00,25.5,62,24.4,20.2
 2003/06/07, 9:15,25.6,60,24.5,20.3
 2003/06/07, 9:30,25.8,59,24.7,20.3
 2003/06/07, 9:45,25.8,58,24.8,20.4
 2003/06/07,10:00,25.8,58,24.9,20.4
 2003/06/07,10:15,25.9,57,25.1,20.5
 2003/06/07,10:30,26.4,55,25.2,20.5
 2003/06/07,10:45,26.7,54,25.4,20
 2003/06/07,11:00,27.1,50,25.5,20.1
 2003/06/07,11:15,27.2,44,25.7,20.1
 2003/06/07,11:30,27.5,44,26,20.2
 2003/06/07,11:45,27.8,43,26.2,20.3
 2003/06/07,12:00,28,45,26.3,20.3
 2003/06/07,12:15,28.6,38,26.5,20.3
 2003/06/07,12:30,28.3,40,26.7,20.4
 2003/06/07,12:45,28.1,41,26.9,20.5
 2003/06/07,13:00,28.3,41,26.8,20.5
 2003/06/07,13:15,28.5,40,26.9,20
 2003/06/07,13:30,28.5,39,26.9,20.5
 2003/06/07,13:45,28,41,26.9,20.5
 2003/06/07,14:00,28.3,40,26.9,20.6
 2003/06/07,14:15,28.4,38,26.9,20.7
 2003/06/07,14:30,28.7,34,27,20.7
 2003/06/07,14:45,28.2,35,27,20.8
 2003/06/07,15:00,28.4,35,27.1,20.8
 2003/06/07,15:15,28,34,27.1,20.9
 2003/06/07,15:30,28.3,36,27.1,21
 2003/06/07,15:45,28.4,36,27,21.1
 2003/06/07,16:00,28,41,26.6,21.1
 2003/06/07,16:15,27.6,45,26.3,21
 2003/06/07,16:30,27.6,49,26.1,21
 2003/06/07,16:45,28,49,26,21.1
 2003/06/07,17:00,27.5,52,26,21.1
 2003/06/07,17:15,27.3,54,26,21.2
 2003/06/07,17:30,27.6,54,26,21.2
 2003/06/07,17:45,27.8,52,26,20.6
 2003/06/07,18:00,28.1,50,25.5,20.6
 2003/06/07,18:15,28.3,50,25.5,20.7
 2003/06/07,18:30,28,52,25.3,20.8
 2003/06/07,18:45,27.5,54,25.4,20.9
 2003/06/07,19:00,27.4,53,25.8,20.9
 2003/06/07,19:15,27.4,52,25.8,20.9
 2003/06/07,19:30,27.2,51,25.8,20.9
 2003/06/07,19:45,27,51,25.8,21
 2003/06/07,20:00,26.9,52,25.8,21